Regional Weather Roundup
Issued by NWS

Home | Current Version | Previous Version | Text Only | Print | Product List | Glossary On
Versions: 1 2 3 4 5 6 7 8 9 10 11 12 13 14 15 16 17 18 19 20 21 22 23 24 25 26 27 28 29 30 31 32 33 34 35 36 37 38 39 40 41 42 43 44 45 46 47 48 49 50
000
ASUS42 KTBW 232310
RWRFL
FLORIDA REGIONAL WEATHER ROUNDUP
NATIONAL WEATHER SERVICE TAMPA BAY RUSKIN FL
700 PM EDT TUE SEP 23 2014

NOTE: "FAIR" INDICATES FEW OR NO CLOUDS BELOW 12,000 FEET WITH NO
SIGNIFICANT WEATHER AND/OR OBSTRUCTIONS TO VISIBILITY.


FLZ001>010-012>015-112-114-115-240000-
PANHANDLE FLORIDA

CITY           SKY/WX    TMP DP  RH WIND       PRES   REMARKS
PENSACOLA      CLEAR     78  61  55 NE8G18    30.03S
PENSACOLA NAS  PTCLDY    80  62  54 NE8       30.03S
MILTON NAS     PTCLDY    78  61  55 N9        30.05S
CRESTVIEW      CLEAR     80  61  52 N8        30.06S
DUKE FIELD     PTCLDY    80  67  65 NE8       30.04S
VALPARAISO     PTCLDY    81  61  51 NE16      30.03S
MARY ESTHER    CLEAR     80  58  47 NE9       30.02S
TRI COUNTY     FAIR      76  63  64 MISG      30.06S
PANAMA CITY    FAIR      80  64  58 N9        30.02S
TYNDALL AFB    CLEAR     81  68  64 VRB6      30.01S
APALACHICOLA   CLEAR     81  69  67 E8        29.99S

STATION/POSITION SKY/WX   TEMP    WIND        PRES    WAVE   SWELL
                          AIR SEA DIR/SP/G            HT/PER HT/PER
                          (F)     (DEG/KT/KT) (MB)    (FT/S) (FT/S)
30.1N   87.6W              77 84   80/ 12/ 16 1016.9F   2/ 5
29.2N   88.2W              78 84   50/ 17/ 21 1016.5F   4/ 6
28.8N   86.0W              80 84   70/ 16/ 19 1015.1R   4/ 5
PANAMA CITY BEAC           81 84   20/ 10/ 15 1016.5R
CAPE SAN BLAS    NOT AVBL
TOWER C                    80      70/ 17/ 19 1015.5F
28.5N   84.5W              80 84   40/ 17/ 21 1014.7F   3/ 5

$$
FLZ011-016>038-118-127-128-134-139-239-240000-
NORTH FLORIDA

CITY           SKY/WX    TMP DP  RH WIND       PRES   REMARKS
MARIANNA       CLEAR     78  65  63 NE13      30.05R
TALLAHASSEE    PTCLDY    82  63  52 NE8       30.03R
PERRY          CLEAR     79  61  53 NE6       30.02S
CROSS CITY       N/A     79  68  69 NE5       30.00F
LAKE CITY      FAIR      73  66  78 NE9       30.04R
GAINESVILLE    PTCLDY    76  69  79 NE10      30.02S
MAYPORT NAS    MOCLDY    78  68  71 NE18G25   30.03S
JACKSONVILLE   MOCLDY    76  68  76 NE12      30.04S
JAX NAS        MOCLDY    80  68  66 NE16      30.04S
JAX CRAIG      PTCLDY    77  68  73 NE9       30.03S
JAX CECIL      PTCLDY    75  68  78 NE12      30.04S
FERNANDINA BEA CLOUDY    81  70  69 NE23G29   30.03S
ST AUGUSTINE   CLOUDY    76  69  79 N18       30.03S

STATION/POSITION SKY/WX   TEMP    WIND        PRES    WAVE   SWELL
                          AIR SEA DIR/SP/G            HT/PER HT/PER
                          (F)     (DEG/KT/KT) (MB)    (FT/S) (FT/S)
SHELL POINT                84      40/  7/ 13   N/A
KEATON BEACH               79      50/  4/  7 1016.1S
CEDAR KEY                  77      50/ 10/ 12 1016.2R
FERNANDINA                 77 80   40/  9/ 18 1016.7S
30.7N   81.3W                 82                N/A     6/ 6
MAYPORT                    77 82   50/ 17/ 22   N/A
31.4N   80.9W              74 82   20/ 25/ 31 1017.1F   8/ 6
ST AUGUSTINE               77      20/ 20/ 23 1016.9S

$$
FLZ040-043>046-052-053-057-058-063-144-240000-
INTERIOR CENTRAL FLORIDA

CITY           SKY/WX    TMP DP  RH WIND       PRES   REMARKS
OCALA          MOCLDY    75  70  83 N6        30.01S
THE VILLAGES     N/A     77  73  88 CALM      29.91R
LEESBURG       CLOUDY    78  71  79 NE12      30.02R
SANFORD        TSTM      73  70  90 NE5       30.00F
ORLANDO EXEC   LGT RAIN  73  71  93 N9        30.00S FOG
ORLANDO INTL   LGT RAIN  73  72  96 N9        30.00S
KISSIMMEE      MOCLDY    75  73  94 N8        30.00R
WINTER HAVEN   MOCLDY    76  72  87 N10       29.99S
LAKELAND       CLOUDY    79  73  83 N6        29.98R
BARTOW         FAIR      75  72  88 CALM      29.98S
OKEECHOBEE     PTCLDY    79  73  83 MISG      29.96R

$$
FLZ041-047-054-059-064-141-147-240000-
EAST CENTRAL FLORIDA

CITY           SKY/WX    TMP DP  RH WIND       PRES   REMARKS
ORMOND BEACH   MOCLDY    75  72  88 N5        30.00S
DAYTONA BEACH  CLOUDY    74  72  93 S6        30.00S THUNDER
DELAND         CLOUDY    73  70  88 CALM      30.02R
NEW SMYRNA BEA RAIN      73  70  88 E6        30.00S VSB 1
JFK SPACE CTR  CLOUDY    75  73  93 N3        30.00R
TITUSVILLE     CLOUDY    73  73 100 VRB6      30.01R
CAPE CANAVERAL CLOUDY    76  72  88 NW9       29.99R
PATRICK AFB    MOCLDY    77  74  90 N7        29.99R
MELBOURNE      MOCLDY    76  72  87 N6        29.98R
VERO BEACH     PTCLDY    77  72  84 N7        29.98R
FT PIERCE      PTCLDY    80  74  81 CALM      29.97R
STUART         MOCLDY    81  73  78 NW3       29.97

STATION/POSITION SKY/WX   TEMP    WIND        PRES    WAVE   SWELL
                          AIR SEA DIR/SP/G            HT/PER HT/PER
                          (F)     (DEG/KT/KT) (MB)    (FT/S) (FT/S)
28.5N   80.2W              79 83  290/  8/ 10 1015.7R
28.9N   78.5W              76 84  200/ 14/ 17 1016.2R   3/ 7   2/ 7
TRIDENT PIER               76 84  320/  8/  9 1015.1R
28.4N   80.5W                 83                N/A     2/ 4
27.6N   80.2W                 83                N/A     2/ 4

$$
FLZ050-056-061-142-242-148-248-149-249-151-251-155-255-
160-260-240000-
WEST CENTRAL FLORIDA

CITY           SKY/WX    TMP DP  RH WIND       PRES   REMARKS
CRYSTAL RIVER  CLOUDY    79  70  73 NE9       30.00R
INVERNESS      CLOUDY    79  68  69 NE9       30.00R
BROOKSVILLE    CLOUDY    78  72  81 E7        29.99R
ZEPHYRHILLS    MOCLDY    77  72  83 N7        30.00R
CLEARWATER     CLOUDY    80  74  81 CALM      29.96S
TAMPA INTL     CLOUDY    81  70  69 CALM      29.97R
TAMPA EXEC     MOCLDY    81  73  78 CALM      29.98R
PLANT CITY     CLOUDY    81  77  89 CALM      30.00R
MACDILL AFB    CLOUDY    80  76  87 N3        29.97R
ST PETERSBURG  CLOUDY    80  72  76 CALM      29.94S
SARASOTA       MOCLDY    79  73  82 CALM      29.94S
VENICE           N/A    N/A N/A N/A MISG        N/A

STATION/POSITION SKY/WX   TEMP    WIND        PRES    WAVE   SWELL
                          AIR SEA DIR/SP/G            HT/PER HT/PER
                          (F)     (DEG/KT/KT) (MB)    (FT/S) (FT/S)
CEDAR KEY                  77      50/ 10/ 12 1016.2R
28.5N   84.5W              80 84   40/ 17/ 21 1014.7F   3/ 5
27.3N   84.3W                 86                N/A     2/ 5
CLEARWATER BEACH NOT AVBL
MIDDLE TAMPA BAY           80      10/  1/  2 1014.6S
VENICE                     81 84  220/  2/  3 1014.1R

$$
FLZ066-069-070-075>078-162-262-165-265-240000-
SOUTHWEST FLORIDA AND KEYS

CITY           SKY/WX    TMP DP  RH WIND       PRES   REMARKS
PUNTA GORDA    MOCLDY    81  71  71 W6        29.97R
FT MYERS       PTCLDY    78  69  73 W7        29.95R
SOUTHWEST INTL MOCLDY    80  68  66 CALM      29.95R
NAPLES         MOCLDY    81  69  67 W3        29.94R
MARCO ISLAND   MOCLDY    79  72  78 CALM      29.94S
MARATHON       CLOUDY    82  75  79 E5        29.92S
KEY WEST NAS   CLOUDY    82  74  76 E9        29.93S
KEY WEST INTL  CLOUDY    83  74  74 E9        29.93S

STATION/POSITION SKY/WX   TEMP    WIND        PRES    WAVE   SWELL
                          AIR SEA DIR/SP/G            HT/PER HT/PER
                          (F)     (DEG/KT/KT) (MB)    (FT/S) (FT/S)
VENICE                     81 84  220/  2/  3 1014.1R
NAPLES                     80 87  270/  1/  3 1014.4R
DRY TORTUGAS               82     120/  6/  8 1013.2F
NW FL BAY                  81      70/  5/  7 1013.5F
SAND KEY                   82      90/  9/ 12 1013.3R
SOMBRERO KEY               82     100/ 11/ 11 1014.1R
LONG KEY                   81 84  110/  9/ 10 1014.3R
MOLASSES REEF              81 85   90/  7/  8 1013.8R

$$
FLZ067-068-071>074-168-172>174-240000-
SOUTHEAST FLORIDA

CITY           SKY/WX    TMP DP  RH WIND       PRES   REMARKS
W PALM BEACH   MOCLDY    82  71  69 SE3       29.95R
FT LAUDER-EXEC MOCLDY    80  73  79 N3        29.95R
FT LAUDERDALE  MOCLDY    80  71  74 CALM      29.95R
POMPANO BEACH  MOCLDY    83  70  64 CALM      29.96R
PEMBROKE PINES MOCLDY    80  72  76 E3        29.97R
OPA LOCKA      PTCLDY    80  70  71 E6        29.96R
MIAMI          PTCLDY    80  68  66 SE6       29.96R
WEST KENDALL   PTCLDY    81  71  71 E6        29.96R
HOMESTEAD      PTCLDY    79  72  78 NE5       29.95R

STATION/POSITION SKY/WX   TEMP    WIND        PRES    WAVE   SWELL
                          AIR SEA DIR/SP/G            HT/PER HT/PER
                          (F)     (DEG/KT/KT) (MB)    (FT/S) (FT/S)
PORT EVERGLADES            80     360/  3/  5 1014.3
VIRGINIA KEY               80 84   70/  5/  6   N/A
LAKE WORTH                 81 85   30/  4/  5 1014.1F
FOWEY ROCKS                80 84   70/  2/  3 1014.5R
SETTLEMENT POINT           82     130/  4/  5 1015.0R

$$




USA.gov is the U.S. government's official web portal to all federal, state and local government web resources and services.